sat.trackr.live / text

‹ back to catalog

GPS BIIF-1 (PRN 25)

NORAD 36585 · 2010-022A

PAYLOAD ACTIVE UNKNOWN

§ Identity

Operator
Country
US
Launch date
2010-05-28
Launch site
AFETR
Launch vehicle
Mass (kg)
RCS (m²)
5.96

Purposes: nav

External: N2YO · Heavens-Above · Gunter

§ Orbital elements

Epoch: 2026-09-19T22:22:12.754848Z

Period
717.81 min
Inclination
54.2581°
Eccentricity
0.0115957
Mean motion
2.00610250 rev/d
Perigee alt
19,870.2 km
Apogee alt
20,486.0 km
Semi-major
26,556.2 km
B*
0.0000e+0
RAAN
204.7474°
Arg perigee
55.8469°
Mean anomaly
123.8181°
Rev number
11,949

§ Raw data

GPS BIIF-1  (PRN 25)1 36585U 10022A   26262.93209207 -.00000006  00000+0  00000+0 0  99972 36585  54.2581 204.7474 0115957  55.8469 123.8181  2.00610250119491

JSON: /api/v1/satellites/36585 · /tle

For live sub-satellite position, see the globe view (requires WebGL).

§ Visibility from observer

Set your observer location to see the next 7 days of passes ≥ 10°. The values pass through the URL so the page stays shareable.

No JS? Fill the form by hand. The geolocation button needs JavaScript.